COSMOS 2506

Satellite information

Favourite Embed

Satellite Type and Status

PAYLOADIN ORBIT

Key statistics

Satellite COSMOS 2506 at a glance.

Uptime

3774

Days in orbit

Revolutions

≈ 14.5

Per day

Orbit

SSO

Sun Synchronous Orbit

Inclination

98.1

Latest

Satellite identification and parameters

Extended collection of information and parameters for COSMOS 2506.

Object identification

Identified? True

Debris? False

Object name: COSMOS 2506

International designator: 2015-029A

Object number (NORAD): 40699

Object ID (CCSDS): 40699

Country: COMMONWEALTH OF INDEPENDENT STATES (CIS)

Current information (Y/N): Y

RCS size: LARGE

Orbital parameters

Period: 99.019 minutes

Inclination: 98.0831 deg

SMA: 7089.89 km

Apoapsis: 717.085 km

Periapsis: 706.425 km

RAAN: 339.2557 deg

Eccentricy: 0.0007518

Argument of periapsis: 164.8923 deg

Mean anomaly: 195.25 deg

Mean motion: 14.54264936 rev/day

Mean motion (dot): 0.00000325 rev/day2

B* drag term: 0.000086816 1/REarth

Two-line elements (TLE)

Creation date: Oct. 21, 2025, 11:56 p.m.

Reference frame: TEME

Reference center: EARTH

Epoch: Oct. 21, 2025, 8:15 p.m. UTC

TLE line 0: 0 COSMOS 2506

TLE line 1: 1 40699U 15029A 25294.84431319 .00000325 00000-0 86816-4 0 9993

TLE line 2: 2 40699 98.0831 339.2557 0007518 164.8923 195.2500 14.54264936548246

Live tracking on map

Real-time ground track for satellite COSMOS 2506.

In-orbit conjunctions

There are no conjunctions computed for COSMOS 2506, at the moment. Check back to stay up to date, as we update our databases every day.

Go to all conjunctions

Associated space launch

A military reconnaissance satellite will be launched on Tuesday by a Soyuz-2.1b although Russian Defence Ministry has not yet officially confirmed the information. Source: http://tass.ru/en/non-political/802905

COSMOS 2506 was lifted into orbit during the mission ‘Soyuz | Persona (Kosmos 2506)’, on board a Soyuz 2.1b space rocket.

The launch took place on June 23, 2015, 4:44 p.m. from 43/4 (43R).

For more information about the launch, click the button.

Launch to space Soyuz | Persona (Kosmos 2506)
Soyuz | Persona (Kosmos 2506)

Agency: N/A

Status: Launch Successful

Launch date: June 23, 2015, 4:44 p.m. UTC

Rocket: Soyuz 2.1b

Launch pad: 43/4 (43R)

Location: Plesetsk Cosmodrome, Russian Federation

...

Latest news about this satellite

There are no fresh news available about this satellite. Check back as we update our databases every day.


Newsletter sign-up

Weekly statistics, charts and insights to help you stay on top of the space industry.